Louisville, KY

1:40 PM EDT on September 30, 2016 (GMT -0400)
Louisville International-Standiford

Weather History for KSDF - September, 2013

Change the Weather History Date:

Monday, September 16, 2013

  Actual Average Record
Temperature  
Mean Temperature 70 °F 71 °F  
Max Temperature 75 °F 82 °F 96 °F (1954)
Min Temperature 64 °F 61 °F 44 °F (1916)
Degree Days  
Heating Degree Days 0 1  
Month to date heating degree days 2 2  
Since 1 July heating degree days 2 2  
Cooling Degree Days 5 7  
Month to date cooling degree days 169 145  
Year to date cooling degree days 1509 1502  
Growing Degree Days 22 (Base 50)    
Moisture  
Dew Point 59 °F    
Average Humidity 70    
Maximum Humidity 78    
Minimum Humidity 61    
Precipitation  
Precipitation T in 0.10 in 1.47 in (1956)
Month to date precipitation 0.80 1.59  
Year to date precipitation 32.61 32.81  
Snow  
Snow 0.00 in 0.00 in - ()
Month to date snowfall 0.0 0.0  
Since 1 July snowfall 0.0 0.0  
Since 1 September snowfall 0.0 0.0  
Snow Depth 0.00 in    
Sea Level Pressure  
Sea Level Pressure 30.16 in    
Wind  
Wind Speed 6 mph (ENE)    
Max Wind Speed 14 mph    
Max Gust Speed 17 mph    
Visibility 10 miles    
Events Rain    
T = Trace of Precipitation, MM = Missing Value Source: NWS Daily Summary

Daily Weather History Graph

Daily Weather History Graph

Search for Another Location

Airport or City:

Trip Planner

Search our weather history database for the weather conditions in past years. The results will help you decide how hot, cold, wet, or windy it might be!

Date:

Astronomy

Sep. 16, 2013 Rise Set
Actual Time 7:25 AM EDT 7:48 PM EDT
Civil Twilight 6:59 AM EDT 8:15 PM EDT
Nautical Twilight 6:28 AM EDT 8:46 PM EDT
Astronomical Twilight 5:56 AM EDT 9:17 PM EDT
Moon 5:55 PM EDT (9/16) 4:13 AM EDT (9/16)
Length of Visible Light 13h 16m
Length of Day
12h 23m
Waxing Gibbous, 90% of the Moon is Illuminated
Sep 16
Waxing Gibbous
Sep 19
Full
Sep 26
Last Quarter
Oct 4
New
Oct 11
First Quarter

Hourly Weather History & Observations

Time (EDT) Temp. Dew Point Humidity Pressure Visibility Wind Dir Wind Speed Gust Speed Precip Events Conditions
12:56 AM 71.1 °F 57.9 °F 63% 30.06 in 10.0 mi SSW 3.5 mph - N/A   Overcast
1:56 AM 71.1 °F 57.9 °F 63% 30.08 in 10.0 mi Calm Calm - N/A   Overcast
2:56 AM 70.0 °F 57.9 °F 65% 30.08 in 10.0 mi SW 3.5 mph - N/A   Overcast
3:56 AM 70.0 °F 59.0 °F 68% 30.08 in 10.0 mi Calm Calm - 0.00 in Rain Light Rain
4:56 AM 70.0 °F 59.0 °F 68% 30.09 in 10.0 mi South 3.5 mph - 0.00 in   Overcast
5:56 AM 69.1 °F 60.1 °F 73% 30.09 in 10.0 mi ESE 3.5 mph - N/A   Overcast
6:56 AM 68.0 °F 61.0 °F 78% 30.11 in 10.0 mi SE 4.6 mph - N/A   Overcast
7:56 AM 68.0 °F 60.1 °F 76% 30.12 in 10.0 mi SE 4.6 mph - N/A   Overcast
8:56 AM 68.0 °F 60.1 °F 76% 30.14 in 10.0 mi ESE 3.5 mph - N/A   Overcast
9:56 AM 70.0 °F 60.1 °F 71% 30.16 in 10.0 mi Calm Calm - N/A   Overcast
10:56 AM 69.1 °F 62.1 °F 78% 30.18 in 9.0 mi NE 9.2 mph - N/A   Overcast
11:56 AM 71.1 °F 62.1 °F 73% 30.20 in 10.0 mi NNE 8.1 mph - N/A   Overcast
12:56 PM 73.0 °F 61.0 °F 66% 30.20 in 10.0 mi ENE 9.2 mph - N/A   Overcast
1:27 PM 73.4 °F 60.8 °F 65% 30.21 in 10.0 mi ENE 5.8 mph - N/A   Overcast
1:51 PM 73.4 °F 60.8 °F 65% 30.21 in 10.0 mi NE 11.5 mph - N/A   Overcast
1:56 PM 72.0 °F 60.1 °F 66% 30.20 in 10.0 mi ENE 9.2 mph - N/A   Overcast
2:56 PM 73.9 °F 60.1 °F 62% 30.19 in 10.0 mi NE 6.9 mph - N/A   Overcast
3:56 PM 73.9 °F 59.0 °F 59% 30.19 in 10.0 mi ENE 6.9 mph - N/A   Overcast
4:56 PM 73.0 °F 60.1 °F 64% 30.19 in 10.0 mi NNE 11.5 mph - N/A   Overcast
5:56 PM 72.0 °F 59.0 °F 64% 30.19 in 10.0 mi NNE 13.8 mph - N/A   Overcast
6:56 PM 71.1 °F 57.9 °F 63% 30.19 in 10.0 mi NE 9.2 mph - N/A   Overcast
7:56 PM 70.0 °F 59.0 °F 68% 30.19 in 10.0 mi NNE 6.9 mph - N/A   Overcast
8:56 PM 70.0 °F 57.0 °F 63% 30.20 in 10.0 mi NE 5.8 mph - N/A   Overcast
9:56 PM 68.0 °F 57.9 °F 70% 30.22 in 10.0 mi NNE 4.6 mph - N/A   Overcast
10:56 PM 68.0 °F 57.9 °F 70% 30.22 in 10.0 mi NE 4.6 mph - N/A   Overcast
11:56 PM 66.9 °F 57.0 °F 70% 30.24 in 10.0 mi Calm Calm - N/A   Partly Cloudy